Regional Weather Roundup
Issued by NWS Little Rock, AR

Home | Current Version | Previous Version | Text Only | Print | Product List | Glossary On
Versions: 1 2 3 4 5 6 7 8 9 10 11 12 13 14 15 16 17 18 19 20 21 22 23 24 25 26 27 28 29 30 31 32 33 34 35 36 37 38 39 40 41 42 43 44 45 46 47 48 49 50
000
ASUS44 KLZK 020105
RWRLZK

WEATHER ROUNDUP FOR ARKANSAS
NATIONAL WEATHER SERVICE LITTLE ROCK AR
800 PM CDT TUE SEP 01 2015

NOTE: "FAIR" INDICATES FEW OR NO CLOUDS BELOW 12,000 FEET WITH NO
SIGNIFICANT WEATHER AND/OR OBSTRUCTIONS TO VISIBILITY.

ARZ001-003-010-029-020200-
NORTHWEST ARKANSAS

CITY           SKY/WX    TMP DP  RH WIND       PRES   REMARKS
FAYETTEVILLE   CLEAR     76  71  85 CALM      30.05S
FORT SMITH     CLEAR     85  63  47 SE6       29.99S HX  86
HARRISON       PTCLDY    79  64  60 S3        30.08R
BENTONVILLE    CLEAR     79  63  57 S3        30.07R
ROGERS         CLEAR     79  68  69 SE6       30.07R
SILOAM SPGS    CLEAR     79  63  57 SE6       30.04R
HIGHFILL       CLEAR     79  68  69 S5        30.05S
SPRINGDALE     CLEAR     82  66  57 S5        30.07S HX  85
$$

ARZ004-005-016-020200-
NORTH CENTRAL ARKANSAS

CITY           SKY/WX    TMP DP  RH WIND       PRES   REMARKS
BATESVILLE     MOCLDY    81  72  74 NE5       30.06R
FLIPPIN        CLEAR     81  68  65 E3        30.04S
MTN HOME       CLEAR     79  70  74 SE5       30.06R
$$

ARZ040-041-020200-
WEST CENTRAL ARKANSAS

CITY           SKY/WX    TMP DP  RH WIND       PRES   REMARKS
MENA           CLEAR     82  70  65 CALM      30.06S HX  86
$$

ARZ009-017-025-026-028-020200-
NORTHEAST ARKANSAS

CITY           SKY/WX    TMP DP  RH WIND       PRES   REMARKS
JONESBORO      CLOUDY    76  72  87 NE3       30.05S
NEWPORT        CLOUDY    80  74  82 NE5       30.06S
WALNUT RIDGE   MOCLDY    81  72  74 S5        30.06R
BLYTHEVILLE    CLOUDY    83  71  67 CALM      30.06S HX  87
$$

ARZ022-023-033-042-044-020200-
CENTRAL ARKANSAS

CITY           SKY/WX    TMP DP  RH WIND       PRES   REMARKS
LITTLE ROCK    MOCLDY    86  68  54 S3        30.04S HX  89
N LITTLE ROCK  MOCLDY    84  69  60 S3        30.04S HX  87
JACKSONVILLE   CLOUDY    83  68  59 E1        30.03S HX  86
SEARCY         MOCLDY    81  74  79 CALM      30.06R HX  86
HOT SPRINGS    PTCLDY    85  63  47 SE3       30.05S HX  86
RUSSELLVILLE   CLEAR     80  65  59 E3        30.03S
$$

ARZ036-020200-
EAST ARKANSAS

CITY           SKY/WX    TMP DP  RH WIND       PRES   REMARKS
WEST MEMPHIS   CLOUDY    79  72  79 CALM      30.04S
$$

ARZ050-053-066-070-073-020200-
SOUTHWEST ARKANSAS

CITY           SKY/WX    TMP DP  RH WIND       PRES   REMARKS
ARKADELPHIA    FAIR      80  72  76 CALM      30.04S
CAMDEN         MOCLDY    81  72  74 CALM      30.04S
TEXARKANA      PTCLDY    83  70  64 S8        30.03S HX  87
EL DORADO      MOCLDY    81  70  69 CALM      30.04S
DE QUEEN       CLEAR     84  69  60 SE5       30.01R HX  88
$$

ARZ056-057-069-020200-
SOUTHEAST ARKANSAS

CITY           SKY/WX    TMP DP  RH WIND       PRES   REMARKS
PINE BLUFF     MOCLDY    84  67  56 W3        30.04S HX  86
STUTTGART      MOCLDY    84  70  61 E5        30.04S HX  88
MONTICELLO     CLOUDY    83  71  67 CALM      30.04S HX  87

$$





USA.gov is the U.S. government's official web portal to all federal, state and local government web resources and services.